Location: Stony Creek
(40.9500°S, 175.8500°E)
Time: 08:42:19
(UTC+00:00)

USA 32 - Pass Details

Date: 15 May 2026
Orbit: 774 x 780 km, 85.0° (Epoch: 9 June)

Event Time Altitude Azimuth Distance (km) Brightness Sun altitude
Rises 18:16:23 0° 338° (NNW) 3,244 7.2 -11.7°
Reaches altitude 10° 18:18:51 10° 331° (NNW) 2,326 6.4 -11.3°
Maximum altitude 18:23:46 41° 260° (W) 1,120 4.4 -10.4°
Drops below altitude 10° 18:28:46 10° 190° (S) 2,357 6.3 -9.5°
Sets 18:31:16 0° 182° (S) 3,293 7.1 -9.0°
